Flag for Kazakhstan Weather past 2 weeks in Shymkent, Kazakhstan

Now
68 °F

Clear.


Feels Like: 68 °F
Forecast: 56 / 90 °F
Wind: 3 mph from East

Location: Shymkent Airport

Current Time: Sep 16, 2014 at 10:24:50 PM

Latest Report: Sep 16, 2014 at 10:00 PM


Visibility: 4 mi

Pressure: 29.86 "Hg

Humidity: 24%

Dew point: 30 °F

Location of ShymkentLocation

Historic Weather in Shymkent — Graph

°F

Shymkent temperature yesterday

Maximum temperature yesterday: 79 °F (at 5:30 PM)
Minimum temperature yesterday: 55 °F (at 2:00 AM)
Average temperature yesterday: 67 °F

Past Weeks' High & Low Weather Summary

 TemperatureHumidityPressure
High93 °F (Sep 2, 3:00 PM)55% (Sep 15, 11:30 PM)30.04 "Hg (Sep 15, 11:30 PM)
Low50 °F (Sep 10, 7:30 AM)5% (Sep 14, 3:00 PM)29.68 "Hg (Sep 5, 11:00 PM)
Average71 °F20%29.90 "Hg
* Reported Sep 1 9:00 PM — Sep 16 9:00 PM, Shymkent, Weather by CustomWeather, © 2014

Note: Actual official high and low records may vary slightly from our data, if they occured in-between our weather recording intervals... More about our weather records

Advertising

Shymkent weather history for previous 24 hours

 ConditionsComfort  
Time TempWeatherWind HumidityBarometerVisibility
9:00 PM
Sep 16
73 °FPassing clouds.6 mph17%29.86 "HgN/A
8:30 PM73 °FClear.6 mph19%29.86 "Hg10 mi
8:00 PM73 °FClear.6 mph20%29.86 "Hg10 mi
7:30 PM77 °FClear.3 mph18%29.86 "Hg10 mi
7:00 PM79 °FPassing clouds.3 mph15%29.86 "HgN/A
6:30 PM82 °FClear.1 mph13%29.86 "Hg10 mi
6:00 PM82 °FSunny.6 mph11%29.86 "Hg10 mi
5:30 PM82 °FPassing clouds.6 mph12%29.86 "HgN/A
5:00 PM84 °FSunny.10 mph10%29.86 "Hg10 mi
4:30 PM84 °FSunny.1 mph10%29.86 "Hg10 mi
4:00 PM84 °FPassing clouds.6 mph10%29.89 "HgN/A
3:30 PM84 °FPassing clouds.8 mph11%29.89 "HgN/A
3:00 PM84 °FSunny.3 mph10%29.89 "Hg10 mi
2:30 PM82 °FPassing clouds.6 mph12%29.89 "HgN/A
2:00 PM82 °FSunny.3 mph12%29.89 "Hg10 mi
1:30 PM84 °FPassing clouds.3 mph10%29.92 "HgN/A
1:00 PM82 °FSunny.1 mph12%29.92 "Hg10 mi
12:30 PM81 °FSunny.3 mph13%29.92 "Hg10 mi
12:00 PM81 °FSunny.1 mph13%29.92 "Hg10 mi
11:30 AM79 °FSunny.1 mph17%29.95 "Hg10 mi
11:00 AM79 °FSunny.1 mph18%29.95 "Hg10 mi
10:30 AM77 °FSunny.1 mph19%29.95 "Hg10 mi
10:00 AM75 °FPassing clouds.3 mph22%29.95 "HgN/A
9:30 AM70 °FSunny.3 mph27%29.92 "Hg10 mi
8:30 AM63 °FSunny.8 mph34%29.92 "Hg10 mi
8:00 AM59 °FSunny.6 mph42%29.92 "Hg10 mi
7:00 AM54 °FSunny.8 mph51%29.92 "Hg10 mi
6:30 AM54 °FSunny.8 mph54%29.92 "Hg10 mi
6:00 AM54 °FClear.8 mph54%29.92 "Hg10 mi
5:30 AM54 °FClear.6 mph54%29.89 "Hg10 mi
5:00 AM55 °FClear.6 mph55%29.92 "Hg10 mi
4:30 AM55 °FClear.6 mph55%29.92 "Hg10 mi
4:00 AM55 °FClear.6 mph51%29.92 "Hg10 mi
3:30 AM55 °FClear.6 mph55%29.92 "Hg10 mi
3:00 AM55 °FClear.6 mph55%29.92 "Hg10 mi
2:30 AM57 °FClear.6 mph51%29.92 "Hg10 mi
2:00 AM55 °FClear.6 mph55%29.92 "Hg10 mi
1:30 AM57 °FClear.6 mph55%29.92 "Hg10 mi
1:00 AM57 °FClear.6 mph51%29.92 "Hg10 mi
12:30 AM57 °FClear.6 mph51%29.92 "Hg5 mi
12:00 AM59 °FClear.6 mph51%29.92 "Hg5 mi
11:30 PM
Sep 15
59 °FClear.6 mph55%29.95 "Hg5 mi
11:00 PM61 °FClear.3 mph52%29.95 "Hg5 mi
10:30 PM64 °FClear.6 mph46%29.95 "Hg5 mi
10:00 PM63 °FClear.6 mph45%29.95 "Hg5 mi
Weather by CustomWeather, © 2014

See weather overviewHow to use our weather pages